status,avgMeasuredTime,avgSpeed,extID,medianMeasuredTime,TIMESTAMP,vehicleCount,_id,REPORT_ID
OK,102,20,727,102,2014-08-01T07:50:00,3,20746279,204273
OK,68,31,727,68,2014-08-01T07:55:00,0,20746451,204273
OK,51,41,727,51,2014-08-01T08:00:00,1,20746782,204273
OK,90,23,727,90,2014-08-01T08:05:00,3,20747231,204273
OK,71,29,727,71,2014-08-01T08:10:00,3,20747604,204273
OK,69,30,727,69,2014-08-01T08:15:00,6,20748053,204273
OK,49,43,727,49,2014-08-01T08:20:00,4,20748502,204273
OK,43,49,727,43,2014-08-01T08:25:00,7,20748951,204273
OK,40,53,727,40,2014-08-01T08:30:00,7,20749400,204273
OK,101,21,727,101,2014-08-01T08:35:00,6,20749849,204273
OK,94,22,727,94,2014-08-01T08:40:00,3,20750298,204273
OK,42,50,727,42,2014-08-01T08:45:00,5,20750747,204273
OK,42,50,727,42,2014-08-01T08:50:00,5,20751196,204273
OK,71,29,727,71,2014-08-01T08:55:00,4,20751645,204273
OK,68,31,727,68,2014-08-01T09:00:00,7,20752094,204273
OK,64,33,727,64,2014-08-01T09:05:00,6,20752543,204273
OK,79,26,727,79,2014-08-01T09:10:00,6,20752992,204273
OK,62,34,727,62,2014-08-01T09:15:00,7,20753441,204273
OK,48,44,727,48,2014-08-01T09:20:00,7,20753890,204273
OK,43,49,727,43,2014-08-01T09:25:00,3,20754339,204273
OK,44,48,727,44,2014-08-01T09:30:00,4,20754788,204273
OK,40,53,727,40,2014-08-01T09:35:00,2,20755237,204273
OK,64,33,727,64,2014-08-01T09:40:00,3,20755686,204273
OK,50,42,727,50,2014-08-01T09:45:00,7,20756135,204273
OK,46,46,727,46,2014-08-01T09:50:00,4,20756584,204273
OK,60,35,727,60,2014-08-01T09:55:00,3,20757033,204273
OK,42,50,727,42,2014-08-01T10:00:00,1,20757482,204273
OK,94,22,727,94,2014-08-01T10:05:00,2,20757931,204273
OK,103,20,727,103,2014-08-01T10:10:00,5,20758380,204273
OK,97,21,727,97,2014-08-01T10:15:00,5,20758829,204273
OK,82,25,727,82,2014-08-01T10:20:00,3,20759278,204273
OK,44,48,727,44,2014-08-01T10:25:00,6,20759727,204273
OK,43,49,727,43,2014-08-01T10:30:00,5,20760176,204273
OK,43,49,727,43,2014-08-01T10:35:00,0,20760625,204273
OK,70,30,727,70,2014-08-01T10:40:00,4,20761074,204273
OK,71,29,727,71,2014-08-01T10:45:00,4,20761523,204273
OK,72,29,727,72,2014-08-01T10:50:00,4,20761972,204273
OK,67,31,727,67,2014-08-01T10:55:00,5,20762421,204273
OK,67,31,727,67,2014-08-01T11:00:00,3,20762870,204273
OK,108,19,727,108,2014-08-01T11:05:00,1,20763319,204273
OK,71,29,727,71,2014-08-01T11:10:00,2,20763768,204273
OK,47,45,727,47,2014-08-01T11:15:00,4,20764217,204273
OK,47,45,727,47,2014-08-01T11:20:00,4,20764665,204273
OK,81,26,727,81,2014-08-01T11:25:00,4,20765114,204273
OK,80,26,727,80,2014-08-01T11:30:00,6,20765563,204273
OK,55,38,727,55,2014-08-01T11:35:00,5,20766012,204273
OK,51,41,727,51,2014-08-01T11:40:00,4,20766461,204273
OK,64,33,727,64,2014-08-01T11:45:00,5,20766910,204273
OK,49,43,727,49,2014-08-01T11:50:00,5,20767359,204273
OK,73,29,727,73,2014-08-01T11:55:00,6,20767808,204273
OK,75,28,727,75,2014-08-01T12:00:00,6,20768257,204273
OK,57,37,727,57,2014-08-01T12:05:00,10,20768706,204273
OK,65,32,727,65,2014-08-01T12:10:00,11,20769155,204273
OK,69,30,727,69,2014-08-01T12:15:00,7,20769604,204273
OK,51,41,727,51,2014-08-01T12:20:00,9,20770053,204273
OK,51,41,727,51,2014-08-01T12:25:00,9,20770502,204273
OK,104,20,727,104,2014-08-01T12:30:00,4,20770951,204273
OK,89,23,727,89,2014-08-01T12:35:00,9,20771400,204273
OK,84,25,727,84,2014-08-01T12:40:00,10,20771849,204273
OK,69,30,727,69,2014-08-01T12:45:00,4,20772298,204273
OK,85,24,727,85,2014-08-01T12:50:00,3,20772747,204273
OK,86,24,727,86,2014-08-01T12:55:00,5,20773196,204273
OK,86,24,727,86,2014-08-01T13:00:00,5,20773645,204273
OK,108,19,727,108,2014-08-01T13:05:00,3,20774094,204273
OK,94,22,727,94,2014-08-01T13:10:00,4,20774543,204273
OK,51,41,727,51,2014-08-01T13:15:00,10,20774992,204273
OK,62,34,727,62,2014-08-01T13:20:00,11,20775441,204273
OK,62,34,727,62,2014-08-01T13:25:00,5,20775890,204273
OK,47,45,727,47,2014-08-01T13:30:00,4,20776339,204273
OK,71,29,727,71,2014-08-01T13:35:00,5,20776788,204273
OK,63,33,727,63,2014-08-01T13:40:00,3,20777237,204273
OK,63,33,727,63,2014-08-01T13:45:00,5,20777686,204273
OK,70,30,727,70,2014-08-01T13:50:00,5,20778135,204273
OK,50,42,727,50,2014-08-01T13:55:00,5,20778584,204273
OK,44,48,727,44,2014-08-01T14:00:00,3,20779033,204273
OK,37,57,727,37,2014-08-01T14:05:00,2,20779482,204273
OK,69,30,727,69,2014-08-01T14:10:00,3,20779931,204273
OK,91,23,727,91,2014-08-01T14:15:00,6,20780380,204273
OK,96,22,727,96,2014-08-01T14:20:00,3,20780829,204273
OK,55,38,727,55,2014-08-01T14:25:00,1,20781278,204273
OK,74,28,727,74,2014-08-01T14:30:00,2,20781727,204273
OK,77,27,727,77,2014-08-01T14:35:00,6,20782176,204273
OK,104,20,727,104,2014-08-01T14:40:00,4,20782625,204273
OK,92,23,727,92,2014-08-01T14:45:00,1,20783074,204273
OK,94,22,727,94,2014-08-01T14:50:00,4,20783523,204273
OK,87,24,727,87,2014-08-01T14:55:00,8,20783972,204273
OK,77,27,727,77,2014-08-01T15:00:00,4,20784421,204273
OK,68,31,727,68,2014-08-01T15:05:00,2,20784870,204273
OK,64,33,727,64,2014-08-01T15:10:00,3,20785319,204273
OK,61,34,727,61,2014-08-01T15:15:00,3,20785768,204273
OK,61,34,727,61,2014-08-01T15:20:00,0,20786217,204273
OK,93,22,727,93,2014-08-01T15:25:00,1,20786666,204273
OK,93,22,727,93,2014-08-01T15:30:00,1,20787115,204273
OK,51,41,727,51,2014-08-01T15:35:00,1,20787564,204273
OK,51,41,727,51,2014-08-01T15:40:00,0,20788013,204273
OK,51,41,727,51,2014-08-01T15:45:00,0,20788462,204273
OK,51,41,727,51,2014-08-01T15:50:00,0,20788911,204273
OK,120,17,727,120,2014-08-01T15:55:00,1,20789360,204273
OK,76,27,727,76,2014-08-01T16:00:00,2,20789809,204273
OK,33,64,727,33,2014-08-01T16:05:00,0,20790258,204273
OK,33,64,727,33,2014-08-01T16:10:00,0,20790707,204273
OK,36,59,727,36,2014-08-01T16:15:00,1,20791156,204273
OK,39,54,727,39,2014-08-01T16:20:00,2,20791605,204273
OK,46,46,727,46,2014-08-01T16:25:00,3,20792054,204273
OK,100,21,727,100,2014-08-01T16:30:00,2,20792503,204273
OK,91,23,727,91,2014-08-01T16:35:00,2,20792952,204273
OK,91,23,727,91,2014-08-01T16:40:00,3,20793401,204273
OK,172,12,727,172,2014-08-01T16:45:00,1,20793850,204273
OK,172,12,727,172,2014-08-01T16:50:00,0,20794299,204273
OK,172,12,727,172,2014-08-01T16:55:00,0,20794748,204273
OK,172,12,727,172,2014-08-01T17:00:00,0,20795197,204273
OK,172,12,727,172,2014-08-01T17:05:00,0,20795646,204273
OK,172,12,727,172,2014-08-01T17:10:00,0,20796095,204273
OK,53,40,727,53,2014-08-01T17:15:00,1,20796544,204273
OK,43,49,727,43,2014-08-01T17:20:00,2,20796993,204273
OK,34,62,727,34,2014-08-01T17:25:00,0,20797442,204273
OK,34,62,727,34,2014-08-01T17:30:00,0,20797891,204273
OK,39,54,727,39,2014-08-01T17:35:00,1,20798340,204273
OK,39,54,727,39,2014-08-01T17:40:00,0,20798789,204273
OK,106,20,727,106,2014-08-01T17:45:00,1,20799238,204273
OK,106,20,727,106,2014-08-01T17:50:00,1,20799687,204273
OK,106,20,727,106,2014-08-01T17:55:00,0,20800136,204273
OK,106,20,727,106,2014-08-01T18:00:00,0,20800585,204273
OK,106,20,727,106,2014-08-01T18:05:00,0,20801034,204273
OK,61,34,727,61,2014-08-01T18:10:00,1,20801483,204273
OK,126,16,727,126,2014-08-01T18:15:00,1,20801932,204273
OK,56,37,727,56,2014-08-01T18:20:00,1,20802381,204273
OK,56,37,727,56,2014-08-01T18:25:00,0,20802830,204273
OK,56,37,727,56,2014-08-01T18:30:00,0,20803279,204273
OK,56,37,727,56,2014-08-01T18:35:00,0,20803728,204273
OK,32,66,727,32,2014-08-01T18:40:00,1,20804177,204273
OK,32,66,727,32,2014-08-01T18:45:00,1,20804626,204273
OK,32,66,727,32,2014-08-01T18:50:00,0,20805075,204273
OK,115,18,727,115,2014-08-01T18:55:00,2,20805524,204273
OK,90,23,727,90,2014-08-01T19:00:00,2,20805973,204273
OK,87,24,727,87,2014-08-01T19:05:00,1,20806422,204273
OK,87,24,727,87,2014-08-01T19:10:00,0,20806871,204273
OK,87,24,727,87,2014-08-01T19:15:00,0,20807320,204273
OK,87,24,727,87,2014-08-01T19:20:00,0,20807769,204273
OK,101,21,727,101,2014-08-01T19:25:00,2,20808218,204273
OK,101,21,727,101,2014-08-01T19:30:00,2,20808667,204273
OK,101,21,727,101,2014-08-01T19:35:00,0,20809116,204273
OK,101,21,727,101,2014-08-01T19:40:00,0,20809565,204273
OK,101,21,727,101,2014-08-01T19:45:00,0,20810014,204273
OK,136,15,727,136,2014-08-01T19:50:00,2,20810463,204273
OK,136,15,727,136,2014-08-01T19:55:00,3,20810912,204273
OK,107,19,727,107,2014-08-01T20:00:00,2,20811357,204273
OK,86,24,727,86,2014-08-01T20:05:00,2,20811531,204273
OK,46,46,727,46,2014-08-01T20:10:00,0,20811734,204273
OK,46,46,727,46,2014-08-01T20:20:00,0,20812149,204273
OK,133,15,727,133,2014-08-01T20:25:00,3,20812367,204273
OK,133,15,727,133,2014-08-01T20:30:00,3,20812582,204273
OK,111,19,727,111,2014-08-01T20:35:00,2,20812790,204273
OK,65,32,727,65,2014-08-01T20:40:00,1,20812992,204273
OK,68,31,727,68,2014-08-01T20:45:00,3,20813200,204273
OK,68,31,727,68,2014-08-01T20:50:00,3,20813410,204273
OK,68,31,727,68,2014-08-01T20:55:00,0,20813641,204273
OK,68,31,727,68,2014-08-01T21:00:00,0,20813879,204273
OK,67,31,727,67,2014-08-01T21:05:00,1,20814055,204273
OK,92,23,727,92,2014-08-01T21:10:00,1,20814295,204273
OK,92,23,727,92,2014-08-01T21:15:00,0,20814491,204273
OK,92,23,727,92,2014-08-01T21:20:00,0,20814698,204273
OK,92,23,727,92,2014-08-01T21:25:00,0,20814927,204273
OK,92,23,727,92,2014-08-01T21:30:00,0,20815203,204273
OK,92,23,727,92,2014-08-01T21:35:00,0,20815436,204273
OK,92,23,727,92,2014-08-01T21:40:00,0,20815660,204273
OK,71,29,727,71,2014-08-01T21:45:00,1,20815897,204273
OK,71,29,727,71,2014-08-01T21:50:00,0,20816138,204273
OK,71,29,727,71,2014-08-01T21:55:00,0,20816373,204273
OK,71,29,727,71,2014-08-01T22:00:00,0,20816641,204273
OK,71,29,727,71,2014-08-01T22:05:00,0,20817090,204273
OK,31,68,727,31,2014-08-01T22:10:00,1,20817412,204273
OK,31,68,727,31,2014-08-01T22:15:00,0,20817841,204273
OK,31,68,727,31,2014-08-01T22:20:00,0,20818131,204273
OK,31,68,727,31,2014-08-01T22:25:00,0,20818447,204273
OK,31,68,727,31,2014-08-01T22:30:00,0,20818781,204273
OK,31,68,727,31,2014-08-01T22:40:00,0,20819265,204273
OK,31,68,727,31,2014-08-01T22:45:00,0,20819553,204273
OK,31,68,727,31,2014-08-01T22:50:00,0,20819788,204273
OK,31,68,727,31,2014-08-01T22:55:00,0,20820041,204273
OK,31,68,727,31,2014-08-01T23:00:00,0,20820217,204273
OK,31,68,727,31,2014-08-01T23:05:00,0,20820470,204273
OK,31,68,727,31,2014-08-01T23:10:00,0,20820700,204273
OK,31,68,727,31,2014-08-01T23:15:00,0,20820888,204273
OK,31,68,727,31,2014-08-01T23:25:00,0,20821316,204273
OK,31,68,727,31,2014-08-01T23:30:00,0,20821542,204273
OK,31,68,727,31,2014-08-01T23:35:00,0,20821966,204273
OK,31,68,727,31,2014-08-01T23:45:00,0,20822189,204273
OK,31,68,727,31,2014-08-01T23:50:00,0,20822456,204273
OK,31,68,727,31,2014-08-01T23:55:00,0,20822782,204273
OK,31,68,727,31,2014-08-02T00:00:00,0,20823080,204273
OK,31,68,727,31,2014-08-02T00:05:00,0,20823529,204273
OK,31,68,727,31,2014-08-02T00:10:00,0,20823978,204273
OK,31,68,727,31,2014-08-02T00:15:00,0,20824427,204273
OK,31,68,727,31,2014-08-02T00:20:00,0,20824876,204273
OK,31,68,727,31,2014-08-02T00:25:00,0,20825325,204273
OK,31,68,727,31,2014-08-02T00:30:00,0,20825774,204273
OK,31,68,727,31,2014-08-02T00:35:00,0,20826223,204273
OK,31,68,727,31,2014-08-02T00:40:00,0,20826672,204273
OK,31,68,727,31,2014-08-02T00:45:00,0,20827121,204273
OK,31,68,727,31,2014-08-02T00:50:00,0,20827570,204273
OK,31,68,727,31,2014-08-02T00:55:00,0,20828019,204273
OK,31,68,727,31,2014-08-02T01:00:00,0,20828468,204273
OK,31,68,727,31,2014-08-02T01:05:00,0,20828917,204273
OK,31,68,727,31,2014-08-02T01:10:00,0,20829366,204273
OK,31,68,727,31,2014-08-02T01:15:00,0,20829815,204273
OK,45,47,727,45,2014-08-02T01:20:00,1,20830264,204273
OK,45,47,727,45,2014-08-02T01:25:00,1,20830713,204273
OK,45,47,727,45,2014-08-02T01:30:00,0,20831162,204273
OK,45,47,727,45,2014-08-02T01:35:00,0,20831611,204273
OK,45,47,727,45,2014-08-02T01:40:00,0,20832060,204273
OK,45,47,727,45,2014-08-02T01:45:00,0,20832509,204273
OK,45,47,727,45,2014-08-02T01:50:00,0,20832958,204273
OK,45,47,727,45,2014-08-02T01:55:00,0,20833407,204273
OK,45,47,727,45,2014-08-02T02:00:00,0,20833856,204273
OK,45,47,727,45,2014-08-02T02:05:00,0,20834305,204273
OK,45,47,727,45,2014-08-02T02:10:00,0,20834754,204273
OK,45,47,727,45,2014-08-02T02:15:00,0,20835203,204273
OK,45,47,727,45,2014-08-02T02:20:00,0,20835652,204273
OK,45,47,727,45,2014-08-02T02:25:00,0,20836101,204273
OK,45,47,727,45,2014-08-02T02:30:00,0,20836550,204273
OK,45,47,727,45,2014-08-02T02:35:00,0,20836999,204273
OK,45,47,727,45,2014-08-02T02:40:00,0,20837448,204273
OK,45,47,727,45,2014-08-02T02:45:00,0,20837897,204273
OK,45,47,727,45,2014-08-02T02:50:00,0,20838346,204273
OK,45,47,727,45,2014-08-02T02:55:00,0,20838795,204273
OK,45,47,727,45,2014-08-02T03:00:00,0,20839244,204273
OK,45,47,727,45,2014-08-02T03:05:00,0,20839693,204273
OK,45,47,727,45,2014-08-02T03:10:00,0,20840142,204273
OK,45,47,727,45,2014-08-02T03:15:00,0,20840591,204273
OK,45,47,727,45,2014-08-02T03:20:00,0,20841040,204273
OK,45,47,727,45,2014-08-02T03:25:00,0,20841489,204273
OK,45,47,727,45,2014-08-02T03:30:00,0,20841938,204273
OK,45,47,727,45,2014-08-02T03:35:00,0,20842387,204273
OK,45,47,727,45,2014-08-02T03:40:00,0,20842836,204273
OK,45,47,727,45,2014-08-02T03:45:00,0,20843285,204273
OK,45,47,727,45,2014-08-02T03:50:00,0,20843734,204273
OK,45,47,727,45,2014-08-02T03:55:00,0,20844183,204273
OK,45,47,727,45,2014-08-02T04:00:00,0,20844632,204273
OK,45,47,727,45,2014-08-02T04:05:00,0,20844763,204273
OK,45,47,727,45,2014-08-02T04:10:00,0,20845093,204273
OK,45,47,727,45,2014-08-02T04:15:00,0,20845273,204273
OK,45,47,727,45,2014-08-02T04:20:00,0,20845629,204273
OK,45,47,727,45,2014-08-02T04:25:00,0,20845975,204273
OK,45,47,727,45,2014-08-02T04:30:00,0,20846185,204273
OK,45,47,727,45,2014-08-02T04:35:00,0,20846552,204273
OK,45,47,727,45,2014-08-02T04:40:00,0,20846935,204273
OK,45,47,727,45,2014-08-02T04:45:00,0,20847194,204273
OK,45,47,727,45,2014-08-02T04:50:00,0,20847560,204273
OK,45,47,727,45,2014-08-02T04:55:00,0,20847917,204273
OK,45,47,727,45,2014-08-02T05:00:00,0,20848277,204273
OK,38,55,727,38,2014-08-02T05:05:00,1,20848441,204273
OK,38,55,727,38,2014-08-02T05:10:00,0,20848795,204273
OK,38,55,727,38,2014-08-02T05:15:00,0,20848987,204273
OK,38,55,727,38,2014-08-02T05:20:00,0,20849331,204273
OK,115,18,727,115,2014-08-02T05:30:00,1,20849856,204273
OK,115,18,727,115,2014-08-02T05:35:00,0,20850128,204273
OK,115,18,727,115,2014-08-02T05:40:00,0,20850421,204273
OK,115,18,727,115,2014-08-02T05:45:00,0,20850722,204273
OK,50,42,727,50,2014-08-02T05:50:00,1,20851080,204273
OK,50,42,727,50,2014-08-02T05:55:00,0,20851334,204273
OK,50,42,727,50,2014-08-02T06:00:00,0,20851637,204273
OK,50,42,727,50,2014-08-02T06:05:00,0,20852086,204273
OK,50,42,727,50,2014-08-02T06:10:00,0,20852535,204273
OK,50,42,727,50,2014-08-02T06:15:00,0,20852984,204273
OK,50,42,727,50,2014-08-02T06:20:00,0,20853433,204273
OK,50,42,727,50,2014-08-02T06:25:00,0,20853882,204273
OK,50,42,727,50,2014-08-02T06:30:00,0,20854331,204273
OK,100,21,727,100,2014-08-02T06:35:00,0,20854780,204273
OK,100,21,727,100,2014-08-02T06:40:00,0,20855229,204273
OK,100,21,727,100,2014-08-02T06:45:00,0,20855678,204273
OK,100,21,727,100,2014-08-02T06:50:00,0,20856127,204273
OK,100,21,727,100,2014-08-02T06:55:00,0,20856576,204273
OK,100,21,727,100,2014-08-02T07:00:00,0,20857025,204273
OK,100,21,727,100,2014-08-02T07:05:00,0,20857474,204273
OK,107,19,727,107,2014-08-02T07:10:00,1,20857923,204273
OK,107,19,727,107,2014-08-02T07:15:00,1,20858372,204273
OK,107,19,727,107,2014-08-02T07:20:00,0,20858821,204273
OK,41,51,727,41,2014-08-02T07:25:00,2,20859270,204273
OK,41,51,727,41,2014-08-02T07:30:00,2,20859719,204273
OK,41,51,727,41,2014-08-02T07:35:00,0,20860168,204273
OK,41,51,727,41,2014-08-02T07:40:00,0,20860617,204273
OK,41,51,727,41,2014-08-02T07:45:00,0,20861066,204273
OK,41,51,727,41,2014-08-02T07:50:00,0,20861515,204273
OK,41,51,727,41,2014-08-02T07:55:00,0,20861964,204273
OK,41,51,727,41,2014-08-02T08:00:00,0,20862413,204273
OK,41,51,727,41,2014-08-02T08:05:00,0,20862862,204273
OK,41,51,727,41,2014-08-02T08:10:00,0,20863311,204273
OK,30,70,727,30,2014-08-02T08:15:00,1,20863760,204273
OK,30,70,727,30,2014-08-02T08:20:00,1,20864209,204273
OK,136,15,727,136,2014-08-02T08:25:00,1,20864658,204273
OK,136,15,727,136,2014-08-02T08:30:00,1,20865107,204273
OK,136,15,727,136,2014-08-02T08:35:00,0,20865556,204273
OK,136,15,727,136,2014-08-02T08:40:00,0,20866005,204273
OK,136,15,727,136,2014-08-02T08:45:00,0,20866454,204273
OK,136,15,727,136,2014-08-02T08:50:00,0,20866903,204273
OK,136,15,727,136,2014-08-02T08:55:00,0,20867352,204273
OK,94,22,727,94,2014-08-02T09:00:00,2,20867801,204273
OK,91,23,727,91,2014-08-02T09:05:00,2,20868250,204273
OK,37,57,727,37,2014-08-02T09:10:00,2,20868699,204273
OK,41,51,727,41,2014-08-02T09:15:00,3,20869148,204273
OK,89,23,727,89,2014-08-02T09:20:00,3,20869597,204273
OK,50,42,727,50,2014-08-02T09:25:00,1,20870046,204273
OK,50,42,727,50,2014-08-02T09:30:00,0,20870495,204273
OK,81,26,727,81,2014-08-02T09:35:00,2,20870944,204273
OK,81,26,727,81,2014-08-02T09:40:00,2,20871393,204273
OK,79,26,727,79,2014-08-02T09:45:00,2,20871842,204273
OK,79,26,727,79,2014-08-02T09:50:00,2,20872291,204273
OK,92,23,727,92,2014-08-02T09:55:00,0,20872740,204273
OK,65,32,727,65,2014-08-02T10:00:00,1,20873189,204273
OK,65,32,727,65,2014-08-02T10:05:00,1,20873638,204273
OK,65,32,727,65,2014-08-02T10:10:00,0,20874087,204273
OK,65,32,727,65,2014-08-02T10:15:00,0,20874536,204273
OK,65,32,727,65,2014-08-02T10:20:00,0,20874985,204273
OK,91,23,727,91,2014-08-02T10:25:00,2,20875434,204273
OK,64,33,727,64,2014-08-02T10:30:00,2,20875883,204273
OK,67,31,727,67,2014-08-02T10:35:00,4,20876332,204273
OK,67,31,727,67,2014-08-02T10:40:00,2,20876781,204273
OK,67,31,727,67,2014-08-02T10:45:00,0,20877230,204273
OK,67,31,727,67,2014-08-02T10:50:00,0,20877679,204273
OK,67,31,727,67,2014-08-02T10:55:00,0,20878128,204273
OK,47,45,727,47,2014-08-02T11:00:00,1,20878577,204273
OK,47,45,727,47,2014-08-02T11:05:00,1,20879026,204273
OK,47,45,727,47,2014-08-02T11:10:00,0,20879475,204273
OK,40,53,727,40,2014-08-02T11:15:00,1,20879924,204273
OK,122,17,727,122,2014-08-02T11:20:00,3,20880373,204273
OK,103,20,727,103,2014-08-02T11:25:00,4,20880822,204273
OK,66,32,727,66,2014-08-02T11:30:00,2,20881271,204273
OK,66,32,727,66,2014-08-02T11:35:00,0,20881720,204273
OK,66,32,727,66,2014-08-02T11:40:00,0,20882169,204273
OK,66,32,727,66,2014-08-02T11:45:00,0,20882618,204273
OK,57,37,727,57,2014-08-02T11:50:00,2,20883067,204273
OK,72,29,727,72,2014-08-02T11:55:00,3,20883516,204273
OK,46,46,727,46,2014-08-02T12:00:00,1,20883965,204273
OK,116,18,727,116,2014-08-02T12:05:00,1,20884414,204273
OK,116,18,727,116,2014-08-02T12:10:00,0,20884863,204273
OK,98,21,727,98,2014-08-02T12:15:00,1,20885312,204273
OK,89,23,727,89,2014-08-02T12:20:00,2,20885761,204273
OK,80,26,727,80,2014-08-02T12:25:00,0,20886210,204273
OK,80,26,727,80,2014-08-02T12:30:00,0,20886659,204273
OK,80,26,727,80,2014-08-02T12:35:00,0,20887108,204273
OK,80,26,727,80,2014-08-02T12:40:00,0,20887557,204273
OK,80,26,727,80,2014-08-02T12:45:00,0,20888006,204273
OK,80,26,727,80,2014-08-02T12:50:00,0,20888455,204273
OK,80,26,727,80,2014-08-02T12:55:00,0,20888904,204273
OK,80,26,727,80,2014-08-02T13:00:00,0,20889353,204273
OK,80,26,727,80,2014-08-02T13:05:00,0,20889802,204273
OK,80,26,727,80,2014-08-02T13:10:00,0,20890251,204273
OK,80,26,727,80,2014-08-02T13:15:00,0,20890700,204273
OK,80,26,727,80,2014-08-02T13:20:00,0,20891149,204273
OK,44,48,727,44,2014-08-02T13:25:00,1,20891598,204273
OK,44,48,727,44,2014-08-02T13:30:00,0,20892047,204273
OK,67,31,727,67,2014-08-02T13:35:00,1,20892496,204273
OK,67,31,727,67,2014-08-02T13:40:00,0,20892945,204273
OK,121,17,727,121,2014-08-02T13:45:00,2,20893394,204273
OK,94,22,727,94,2014-08-02T13:50:00,1,20893843,204273
OK,94,22,727,94,2014-08-02T13:55:00,0,20894292,204273
OK,94,22,727,94,2014-08-02T14:00:00,0,20894741,204273
OK,94,22,727,94,2014-08-02T14:05:00,0,20895190,204273
OK,71,29,727,71,2014-08-02T14:10:00,1,20895639,204273
OK,71,29,727,71,2014-08-02T14:15:00,0,20896088,204273
OK,57,37,727,57,2014-08-02T14:20:00,1,20896537,204273
OK,57,37,727,57,2014-08-02T14:25:00,0,20896986,204273
OK,57,37,727,57,2014-08-02T14:30:00,0,20897435,204273
OK,103,20,727,103,2014-08-02T14:35:00,1,20897884,204273
OK,110,19,727,110,2014-08-02T14:40:00,2,20898333,204273
OK,118,18,727,118,2014-08-02T14:45:00,0,20898782,204273
OK,130,16,727,130,2014-08-02T14:50:00,1,20899231,204273
OK,103,20,727,103,2014-08-02T14:55:00,2,20899680,204273
OK,76,27,727,76,2014-08-02T15:00:00,0,20900129,204273
OK,76,27,727,76,2014-08-02T15:05:00,0,20900578,204273
OK,93,22,727,93,2014-08-02T15:10:00,2,20901027,204273
OK,56,37,727,56,2014-08-02T15:15:00,1,20901476,204273
OK,56,37,727,56,2014-08-02T15:20:00,0,20901925,204273
OK,56,37,727,56,2014-08-02T15:25:00,0,20902374,204273
OK,103,20,727,103,2014-08-02T15:30:00,1,20902823,204273
OK,103,20,727,103,2014-08-02T15:35:00,1,20903272,204273
OK,103,20,727,103,2014-08-02T15:40:00,0,20903721,204273
OK,94,22,727,94,2014-08-02T15:45:00,0,20904170,204273
OK,94,22,727,94,2014-08-02T15:50:00,0,20904619,204273
OK,94,22,727,94,2014-08-02T15:55:00,0,20905068,204273
OK,94,22,727,94,2014-08-02T16:00:00,0,20905517,204273
OK,31,68,727,31,2014-08-02T16:05:00,1,20905966,204273
OK,51,41,727,51,2014-08-02T16:10:00,2,20906415,204273
OK,72,29,727,72,2014-08-02T16:15:00,3,20906864,204273
OK,66,32,727,66,2014-08-02T16:20:00,0,20907313,204273
OK,66,32,727,66,2014-08-02T16:25:00,0,20907762,204273
OK,66,32,727,66,2014-08-02T16:30:00,0,20908211,204273
OK,66,32,727,66,2014-08-02T16:35:00,0,20908660,204273
OK,66,32,727,66,2014-08-02T16:40:00,0,20909109,204273
OK,66,32,727,66,2014-08-02T16:45:00,0,20909558,204273
OK,66,32,727,66,2014-08-02T16:50:00,0,20910007,204273
OK,137,15,727,137,2014-08-02T16:55:00,1,20910456,204273
OK,137,15,727,137,2014-08-02T17:00:00,0,20910905,204273
OK,137,15,727,137,2014-08-02T17:05:00,0,20911354,204273
OK,62,34,727,62,2014-08-02T17:10:00,1,20911803,204273
OK,137,15,727,137,2014-08-02T17:15:00,1,20912252,204273
OK,137,15,727,137,2014-08-02T17:20:00,1,20912701,204273
OK,137,15,727,137,2014-08-02T17:25:00,0,20913150,204273
OK,137,15,727,137,2014-08-02T17:30:00,0,20913599,204273
OK,37,57,727,37,2014-08-02T17:35:00,1,20914048,204273
OK,48,44,727,48,2014-08-02T17:40:00,2,20914497,204273
OK,96,22,727,96,2014-08-02T17:45:00,1,20914946,204273
OK,96,22,727,96,2014-08-02T17:50:00,0,20915395,204273
OK,96,22,727,96,2014-08-02T17:55:00,0,20915844,204273
OK,96,22,727,96,2014-08-02T18:00:00,0,20916293,204273
OK,96,22,727,96,2014-08-02T18:05:00,0,20916742,204273
OK,96,22,727,96,2014-08-02T18:10:00,0,20917191,204273
OK,32,66,727,32,2014-08-02T18:15:00,1,20917640,204273
OK,102,20,727,102,2014-08-02T18:20:00,1,20918089,204273
OK,102,20,727,102,2014-08-02T18:25:00,1,20918538,204273
OK,49,43,727,49,2014-08-02T18:30:00,1,20918987,204273
OK,49,43,727,49,2014-08-02T18:35:00,0,20919436,204273
OK,49,43,727,49,2014-08-02T18:40:00,0,20919885,204273
OK,115,18,727,115,2014-08-02T18:45:00,2,20920334,204273
OK,91,23,727,91,2014-08-02T18:50:00,1,20920783,204273
OK,91,23,727,91,2014-08-02T18:55:00,0,20921232,204273
OK,91,23,727,91,2014-08-02T19:00:00,0,20921681,204273
OK,91,23,727,91,2014-08-02T19:05:00,0,20922130,204273
OK,89,23,727,89,2014-08-02T19:10:00,1,20922579,204273
OK,94,22,727,94,2014-08-02T19:15:00,2,20923028,204273
OK,100,21,727,100,2014-08-02T19:20:00,1,20923477,204273
OK,100,21,727,100,2014-08-02T19:25:00,0,20923926,204273
OK,100,21,727,100,2014-08-02T19:30:00,0,20924375,204273
OK,100,21,727,100,2014-08-02T19:35:00,0,20924824,204273
OK,100,21,727,100,2014-08-02T19:40:00,0,20925273,204273
OK,100,21,727,100,2014-08-02T19:45:00,0,20925722,204273
OK,100,21,727,100,2014-08-02T19:50:00,0,20926171,204273
OK,100,21,727,100,2014-08-02T19:55:00,0,20926620,204273
OK,95,22,727,95,2014-08-02T20:00:00,1,20927069,204273
OK,95,22,727,95,2014-08-02T20:05:00,1,20927518,204273